[[{"header":{"parameterUnit":"m.s-1","parameterCategory":1,"la1":30.2991,"la2":30.254,"lo1":-89.0895,"lo2":-89.0444,"dy":0.0017,"dx":0.0017,"nx":28,"ny":28,"refTime":"2024-05-22T09:00:00:Z","depth":0,"parameterNumber":2,"parameterNumberName":"U-component_of_WINDS"},"data":[0,0,0,0,0,0,0,0,0,0,0,0,0,0,0,0,0,0,0,0,0,0,0,0,0,0,0,0,0,0,0,0,0,0,0,0,0,0,0,0,0,0,0,0,0,0,0,0,0,0,0,0,0,0,0,0,0,0,-3.0604,-3.0603,0,-3.0533,-3.0532,-3.0531,-3.0451,-3.0449,-3.0448,-3.0447,-3.037,-3.037,-3.0369,0,0,0,0,0,0,0,0,0,0,0,0,0,-3.0668,-3.0668,-3.0604,-3.0603,-3.0602,-3.0533,-3.0532,-3.0531,-3.0451,-3.0449,-3.0448,-3.0447,-3.0371,-3.037,-3.0369,0,0,0,0,0,0,0,0,0,0,0,0,0,-3.0623,-3.0667,-3.0604,-3.0554,-3.0549,-3.0533,-3.0532,-3.0531,-3.0451,-3.0449,-3.0448,-3.0446,-3.0371,-3.037,-3.0368,-3.0395,0,0,-3.0364,-3.0363,0,0,0,0,0,0,0,0,-3.0626,-3.0621,-3.0562,-3.0557,-3.0552,-3.0499,-3.0526,-3.0485,-3.0452,-3.0488,-3.0447,-3.0445,-3.0414,-3.0409,-3.04,-3.0392,-3.0388,-3.0364,-3.0363,-3.0362,-3.0362,0,0,0,0,0,0,0,-3.0629,-3.0623,-3.0576,-3.0562,-3.0555,-3.0534,-3.0526,-3.0518,-3.0462,-3.0485,-3.0479,-3.0472,-3.0411,-3.0401,-3.0397,-3.0387,-3.0364,-3.0363,-3.0362,-3.0361,-3.0397,-3.0399,0,0,0,0,0,0,-3.064,-3.0627,-3.0578,-3.0574,-3.0585,-3.0535,-3.0525,-3.0517,-3.0462,-3.0452,-3.0473,-3.0468,-3.0405,-3.0399,-3.0394,-3.0421,-3.0362,-3.0361,-3.036,-3.0395,-3.0397,-3.0399,0,0,0,0,0,0,-3.0642,-3.0637,-3.0581,-3.0598,-3.059,-3.0535,-3.0527,-3.0517,-3.0507,-3.0453,-3.0442,-3.0474,-3.0403,-3.0396,-3.0396,-3.0417,-3.0361,-3.0359,-3.0393,-3.0396,-3.0398,-3.0476,0,0,0,0,0,0,-3.0644,-3.0638,-3.0648,-3.0599,-3.0589,-3.0584,-3.0529,-3.0517,-3.0505,-3.0498,-3.0451,-3.0441,-3.0401,-3.0398,-3.0394,-3.0414,-3.0358,-3.0391,-3.0394,-3.0397,-3.0471,-3.0481,-3.0489,0,0,0,0,0,-3.0647,-3.0672,-3.0649,-3.0643,-3.0601,-3.0586,-3.058,-3.0534,-3.0507,-3.0517,-3.0482,-3.0443,-3.0416,-3.0399,-3.0394,-3.0414,-3.0389,-3.0393,-3.0397,-3.0467,-3.0479,-3.0489,0,0,0,0,0,0,-3.0722,-3.0664,-3.0638,-3.0648,-3.0623,-3.0572,-3.0582,-3.0548,-3.0529,-3.0523,-3.0466,-3.0456,-3.0462,-3.0438,-3.042,-3.0437,-3.0397,-3.04,-3.0452,-3.0463,-3.0471,-3.0476,-3.0357,0,0,0,0,0,-3.0741,-3.0734,-3.0683,-3.0697,-3.0686,-3.0637,-3.0629,-3.0596,-3.0567,-3.0555,-3.052,-3.0493,-3.0478,-3.0469,-3.0453,-3.0468,-3.0456,-3.0479,-3.0488,-3.0496,-3.0499,-3.0504,-3.0514,-3.0412,-3.0412,-3.0412,0,0,-3.0777,-3.0745,-3.0744,-3.0712,-3.0688,-3.0682,-3.0628,-3.0624,-3.0618,-3.0554,-3.0551,-3.0525,-3.049,-3.0498,-3.0499,-3.0478,-3.0524,-3.0501,-3.0508,-3.0506,-3.0509,-3.0519,-3.0527,-3.0415,-3.0415,-3.0414,0,0,-3.0841,-3.0816,-3.0825,-3.0803,-3.0769,-3.0736,-3.0738,-3.0693,-3.0674,-3.0671,-3.0623,-3.0615,-3.0591,-3.0568,-3.0553,-3.0611,-3.0573,-3.0607,-3.0653,-3.066,-3.0667,-3.0674,-3.0693,-3.0701,-3.0611,-3.0611,-3.0611,0,-3.089,-3.088,-3.0833,-3.0832,-3.0819,-3.0763,-3.0771,-3.0751,-3.0713,-3.0705,-3.0682,-3.0652,-3.0624,-3.0625,-3.0639,-3.063,-3.063,-3.0611,-3.067,-3.0677,-3.0682,-3.07,-3.0707,-3.0615,-3.0614,-3.0614,-3.0614,0,-3.0942,-3.0936,-3.0947,-3.0912,-3.0901,-3.0904,-3.0858,-3.0852,-3.0821,-3.0791,-3.0788,-3.0754,-3.0729,-3.0728,-3.0697,-3.0724,-3.0712,-3.0681,-3.064,-3.0697,-3.0712,-3.0719,-3.0621,-3.0619,-3.0618,-3.0617,0,0,-3.1048,-3.099,-3.0995,-3.0979,-3.0937,-3.0931,-3.0932,-3.091,-3.0905,-3.0881,-3.088,-3.0862,-3.0833,-3.0817,-3.0783,-3.0789,-3.0835,-3.0756,-3.0755,-3.0771,-3.0862,-3.0884,-3.0892,-3.0811,-3.0812,-3.0813,-3.0864,0,-3.1103,-3.1102,-3.1061,-3.1071,-3.1064,-3.1012,-3.1013,-3.0987,-3.0959,-3.0949,-3.0918,-3.0906,-3.0869,-3.0859,-3.0862,-3.0829,-3.0852,-3.0825,-3.0807,-3.0807,-3.0815,-3.0901,-3.0924,-3.0973,-3.087,-3.0871,-3.0872,0,-3.1166,-3.1147,-3.1157,-3.1116,-3.1111,-3.1113,-3.1089,-3.1081,-3.1051,-3.103,-3.1013,-3.0975,-3.0973,-3.0936,-3.0931,-3.0913,-3.0904,-3.0886,-3.0887,-3.0882,-3.0841,-3.0896,-3.0988,-3.0995,-3.0881,-3.088,-3.0879,0,-3.1241,-3.1218,-3.1221,-3.1209,-3.1161,-3.1164,-3.1144,-3.1112,-3.1102,-3.1081,-3.1073,-3.1053,-3.1041,-3.1025,-3.0983,-3.096,-3.0982,-3.0942,-3.0963,-3.0964,-3.0968,-3.0968,-3.1058,-3.0966,-3.0966,-3.0966,-3.0966,0,-3.1304,-3.1312,-3.1254,-3.1255,-3.1262,-3.1216,-3.1223,-3.1198,-3.1171,-3.1166,-3.112,-3.1116,-3.1062,-3.1052,-3.1019,-3.1019,-3.1014,-3.0996,-3.0987,-3.0999,-3.1001,-3.099,-3.0985,-3.0968,-3.0967,-3.0967,-3.0966,0,-3.1388,-3.1349,-3.1349,-3.1305,-3.1294,-3.1301,-3.1263,-3.1262,-3.1233,-3.1227,-3.1223,-3.1176,-3.1162,-3.1119,-3.1094,-3.1072,-3.108,-3.1064,-3.1091,-3.1085,-3.1108,-3.1106,-3.1193,-3.1201,-3.1106,-3.1107,-3.1108,0,-3.143,-3.1435,-3.1392,-3.1387,-3.1369,-3.136,-3.135,-3.1304,-3.1295,-3.1262,-3.1265,-3.1247,-3.1231,-3.121,-3.1173,-3.1153,-3.1135,-3.1167,-3.1132,-3.1144,-3.1133,-3.1133,-3.1132,-3.1174,-3.1175,-3.1176,-3.1177,0,-3.1509,-3.149,-3.1477,-3.1458,-3.1447,-3.1429,-3.1409,-3.1406,-3.1355,-3.1347,-3.1333,-3.132,-3.1295,-3.1278,-3.1253,-3.1231,-3.1195,-3.119,-3.1193,-3.1204,-3.1219,-3.121,-3.111,-3.1187,-3.1186,-3.1185,-3.1185,-3.1184,-3.1571,-3.1573,-3.1544,-3.1531,-3.1512,-3.1494,-3.1491,-3.1462,-3.145,-3.1426,-3.1401,-3.1389,-3.1359,-3.1322,-3.1303,-3.1293,-3.1274,-3.1279,-3.128,-3.1282,-3.1287,-3.1223,-3.1288,-3.1288,-3.1287,-3.1287,-3.1287,0,-3.1646,-3.1625,-3.1614,-3.1588,-3.1578,-3.1548,-3.1524,-3.1517,-3.1508,-3.1484,-3.1469,-3.1453,-3.1436,-3.1399,-3.1378,-3.1377,-3.136,-3.1373,-3.1371,-3.1367,-3.1306,-3.1304,-3.1387,-3.1387,-3.1387,-3.1387,-3.1387,-3.1387,-3.1684,-3.1685,-3.1663,-3.1654,-3.1633,-3.1622,-3.1611,-3.1594,-3.1575,-3.1559,-3.1546,-3.1522,-3.1492,-3.147,-3.1453,-3.1442,-3.1436,-3.1454,-3.1438,-3.1381,-3.1371,-3.1362,-3.136,-3.1453,-3.1454,-3.1499,-3.15,-3.15]},{"header":{"parameterUnit":"m.s-1","parameterCategory":1,"la1":30.2991,"la2":30.254,"lo1":-89.0895,"lo2":-89.0444,"dy":0.0017,"dx":0.0017,"nx":28,"ny":28,"refTime":"2024-05-22T09:00:00:Z","depth":0,"parameterNumber":3,"parameterNumberName":"V-component_of_WINDS"},"data":[0,0,0,0,0,0,0,0,0,0,0,0,0,0,0,0,0,0,0,0,0,0,0,0,0,0,0,0,0,0,0,0,0,0,0,0,0,0,0,0,0,0,0,0,0,0,0,0,0,0,0,0,0,0,0,0,0,0,4.5252,4.5252,0,4.5275,4.5275,4.5275,4.5205,4.5203,4.5201,4.5199,4.5222,4.5225,4.5228,0,0,0,0,0,0,0,0,0,0,0,0,0,4.5148,4.5151,4.5252,4.5252,4.5253,4.5275,4.5275,4.5275,4.5206,4.5203,4.52,4.5198,4.5222,4.5225,4.5228,0,0,0,0,0,0,0,0,0,0,0,0,0,4.5184,4.5151,4.5252,4.5221,4.5218,4.5275,4.5275,4.5275,4.5206,4.5203,4.52,4.5197,4.5221,4.5224,4.5228,4.5316,0,0,4.524,4.5242,0,0,0,0,0,0,0,0,4.5182,4.5188,4.5225,4.5223,4.522,4.5234,4.5247,4.5289,4.5207,4.5211,4.5199,4.5195,4.5229,4.5232,4.5243,4.5317,4.5318,4.524,4.5243,4.5245,4.5246,0,0,0,0,0,0,0,4.518,4.5187,4.5261,4.5226,4.5223,4.5205,4.5207,4.5254,4.5237,4.521,4.5205,4.5209,4.5227,4.524,4.5243,4.5319,4.524,4.5244,4.5246,4.5248,4.5466,4.5469,0,0,0,0,0,0,4.5182,4.5185,4.526,4.5262,4.5193,4.521,4.5211,4.5233,4.5237,4.5234,4.5211,4.5205,4.5234,4.5239,4.5244,4.5347,4.5244,4.5248,4.525,4.5462,4.5466,4.547,0,0,0,0,0,0,4.518,4.5189,4.5259,4.5222,4.523,4.5215,4.5239,4.5235,4.5247,4.5238,4.5234,4.5228,4.5232,4.5238,4.5299,4.5347,4.525,4.5253,4.5458,4.5463,4.5468,4.5554,0,0,0,0,0,0,4.5177,4.5189,4.5222,4.5223,4.5232,4.5314,4.5242,4.5238,4.5254,4.5247,4.5252,4.525,4.523,4.5293,4.5302,4.535,4.5257,4.5454,4.546,4.5467,4.5547,4.5562,4.5574,0,0,0,0,0,4.5174,4.5246,4.5224,4.5234,4.5274,4.5317,4.5322,4.5298,4.5258,4.5292,4.5285,4.525,4.534,4.53,4.531,4.536,4.5451,4.5459,4.5466,4.5541,4.5559,4.5574,0,0,0,0,0,0,4.5251,4.5245,4.5222,4.5296,4.5308,4.5305,4.5347,4.5318,4.5341,4.5333,4.5302,4.5303,4.5369,4.537,4.5326,4.5445,4.5388,4.5398,4.5442,4.5459,4.5472,4.5471,4.526,0,0,0,0,0,4.5277,4.5313,4.5306,4.5373,4.5379,4.5362,4.5381,4.5361,4.5371,4.5376,4.5374,4.5386,4.5416,4.5437,4.5465,4.5546,4.5547,4.5586,4.5599,4.561,4.562,4.5662,4.568,4.5495,4.5495,4.5495,0,0,4.5331,4.5332,4.5357,4.5388,4.5395,4.5433,4.5367,4.541,4.5438,4.5382,4.5439,4.5438,4.5449,4.552,4.5551,4.5523,4.567,4.562,4.5629,4.5633,4.5672,4.569,4.5705,4.5501,4.55,4.5499,0,0,4.5448,4.5453,4.5509,4.5516,4.5527,4.5515,4.5528,4.553,4.5527,4.5584,4.5543,4.5575,4.5629,4.5638,4.565,4.577,4.5738,4.578,4.5851,4.5893,4.5908,4.5921,4.5963,4.5979,4.5789,4.5789,4.5789,0,4.5514,4.5569,4.5541,4.5587,4.5602,4.5553,4.5609,4.5618,4.5637,4.5649,4.5616,4.5682,4.5686,4.5759,4.5788,4.5799,4.5813,4.578,4.5908,4.592,4.5932,4.5972,4.5989,4.5794,4.5794,4.5793,4.5793,0,4.565,4.5689,4.5732,4.5752,4.5772,4.5822,4.5802,4.5825,4.5803,4.5794,4.5852,4.5855,4.5882,4.5898,4.5877,4.5967,4.5949,4.5913,4.5856,4.5955,4.5993,4.6008,4.5802,4.58,4.5798,4.5797,0,0,4.5818,4.582,4.5837,4.5845,4.5852,4.5882,4.593,4.5957,4.5977,4.5992,4.6031,4.6077,4.6044,4.6057,4.6037,4.6074,4.6168,4.6032,4.6032,4.6058,4.6268,4.6296,4.6314,4.6146,4.6149,4.6151,4.6267,0,4.5934,4.6017,4.5992,4.6075,4.6111,4.6064,4.6106,4.6115,4.6108,4.6137,4.6128,4.6162,4.6114,4.6122,4.6156,4.615,4.621,4.6141,4.6183,4.6185,4.6183,4.6334,4.6363,4.6472,4.6281,4.6284,4.6286,0,4.6081,4.6101,4.6187,4.6188,4.6202,4.624,4.6262,4.629,4.6299,4.6291,4.6306,4.6278,4.6324,4.6266,4.6331,4.6284,4.63,4.6299,4.6302,4.6306,4.6242,4.6342,4.6506,4.6523,4.6308,4.6307,4.6305,0,4.6195,4.6244,4.6302,4.631,4.6312,4.634,4.6342,4.6348,4.6365,4.6384,4.6395,4.6419,4.6433,4.6452,4.6431,4.6391,4.6498,4.6439,4.6493,4.6494,4.6519,4.6518,4.6689,4.6528,4.6528,4.6528,4.6527,0,4.6328,4.6383,4.6353,4.6389,4.6449,4.642,4.648,4.6476,4.6482,4.6516,4.6477,4.6509,4.6479,4.6509,4.6493,4.6549,4.6555,4.655,4.6545,4.6554,4.6555,4.6564,4.6556,4.6532,4.6531,4.653,4.6529,0,4.6467,4.6449,4.6509,4.6506,4.6506,4.6551,4.6548,4.658,4.657,4.6613,4.6622,4.6606,4.6639,4.6619,4.6653,4.6642,4.6715,4.6699,4.6712,4.6708,4.6764,4.6759,4.6948,4.6971,4.6795,4.6797,4.6798,0,4.6553,4.6594,4.6595,4.6615,4.662,4.6652,4.6669,4.6642,4.6661,4.6674,4.6705,4.6735,4.6757,4.6812,4.6803,4.6829,4.6814,4.6878,4.6818,4.6825,4.6815,4.6813,4.6817,4.6891,4.6893,4.6895,4.6896,0,4.6708,4.6697,4.6723,4.6746,4.6768,4.6785,4.6798,4.6817,4.6789,4.6813,4.6846,4.6863,4.6897,4.6928,4.6949,4.6951,4.6919,4.6915,4.6929,4.6939,4.6945,4.6942,4.6746,4.6911,4.6909,4.6908,4.6907,4.6907,4.6823,4.6858,4.6863,4.6894,4.6901,4.6914,4.6945,4.6937,4.6965,4.699,4.6972,4.7011,4.7018,4.7044,4.7049,4.708,4.7054,4.7074,4.7079,4.7085,4.7093,4.6939,4.7083,4.7083,4.7082,4.7082,4.7082,0,4.6977,4.6978,4.7006,4.7026,4.705,4.7017,4.703,4.7052,4.7087,4.7096,4.7118,4.7156,4.7185,4.7178,4.7203,4.7229,4.7215,4.7236,4.7235,4.7235,4.7114,4.71,4.7247,4.7247,4.7247,4.7247,4.7247,4.7247,4.706,4.7115,4.7105,4.7164,4.7164,4.7202,4.7212,4.7224,4.7231,4.7275,4.7299,4.7293,4.7296,4.7321,4.7345,4.7342,4.7354,4.7381,4.7373,4.726,4.7244,4.7228,4.7215,4.7384,4.7384,4.7491,4.7492,4.7493]}]]